Tracking 30258 objects as of 19-Feb-2025
HD Live streaming from Space Station
objects crossing your sky now

OBJECT B

Track OBJECT B now!
10-day predictions


NORAD ID: 61180
Int'l Code: 2024-166B
Perigee: 297.1 km
Apogee: 307.7 km
Inclination: 96.7 °
Period: 90.4 minutes
Semi major axis: 6673 km
RCS: Unknown
Launch date: September 17, 2024
Source: Commonwealth of Independent States (former USSR) (CIS)
Launch site: PLESETSK MISSILE AND SPACE COMPLEX (PKMTR)

Note: This is SATELLITE DEBRIS
Your satellite tracking list
Your tracking list is empty




NASA's NSSDC Master Catalog

Two Line Element Set (TLE):
1 61180U 24166B   25049.09837214  .00032250  23007-5  96906-4 0  9992
2 61180  96.7458 309.3497 0007970  24.1578 336.0071 15.92515174 24390
Source of the keplerian elements: AFSPC